Starlink 31315

operational
NORAD ID: 58884 Int'l Des: 2024-020 Owner: SPXS Country: US Constellation: starlink
LEOCIRCULAR

About Starlink 31315

Description loading...

Live Position

Loading 3D Globe...

Upcoming Passes

Altitude History

Altitude vs Time

uPlot chart will show altitude changes over time

Two-Line Element Set

1 58884U 24020J 25304.36464539 .00037829 00000-0 11474-2 0 9993
2 58884 53.1593 177.2240 0002188 144.7711 215.3436 15.33778517 98635
Epoch: Oct 31, 2025 • Age: 32 hours

Current Status

Altitude 473.2 km
Velocity 7.63 km/s
Sub-Earth Point -30.79°S, 81.36°E
Launch Date Jan 29, 2024
Age 1.7 years
Type internet

Technical Details

Classification Payload
Mass 730.00 kg
Dry Mass 700.00 kg
Total Mass 730.00 kg
Length 0.30 m
Diameter 4.10 m
Span 29.00 m
Shape Box + pan
Manufacturer SPXS
Bus Type Starlink V2M
Phase Status In Orbit
Owner/State SPXS/US

Large Constellations

Loading constellations...